[[{"header":{"parameterUnit":"m.s-1","parameterCategory":1,"la1":30.2991,"la2":30.254,"lo1":-89.0895,"lo2":-89.0444,"dy":0.0017,"dx":0.0017,"nx":28,"ny":28,"refTime":"2026-02-02T09:00:00:Z","depth":0,"parameterNumber":2,"parameterNumberName":"U-component_of_WINDS"},"data":[0,0,0,0,0,0,0,0,0,0,0,0,0,0,0,0,0,0,0,0,0,0,0,0,0,0,0,0,0,0,0,0,0,0,0,0,0,0,0,0,0,0,0,0,0,0,0,0,0,0,0,0,0,0,0,0,0,0,1.8488,1.8489,0,1.8549,1.855,1.8551,1.8531,1.8529,1.8528,1.8527,1.8587,1.859,1.8593,0,0,0,0,0,0,0,0,0,0,0,0,0,1.8352,1.8355,1.8488,1.8489,1.8489,1.8549,1.855,1.8551,1.8531,1.8529,1.8528,1.8526,1.8587,1.859,1.8593,0,0,0,0,0,0,0,0,0,0,0,0,0,1.8412,1.8356,1.8488,1.8487,1.8487,1.8549,1.855,1.8551,1.8531,1.8529,1.8527,1.8525,1.8585,1.859,1.8594,1.866,0,0,1.8607,1.8609,0,0,0,0,0,0,0,0,1.8409,1.8417,1.8486,1.8487,1.8487,1.853,1.8525,1.8588,1.8532,1.8514,1.8527,1.8524,1.857,1.8575,1.8591,1.8663,1.8665,1.8607,1.861,1.8612,1.8613,0,0,0,0,0,0,0,1.8405,1.8414,1.8512,1.8487,1.8488,1.8483,1.8489,1.8536,1.8552,1.8516,1.8514,1.8522,1.857,1.8587,1.8592,1.8666,1.8607,1.8611,1.8614,1.8615,1.8798,1.88,0,0,0,0,0,0,1.84,1.8411,1.851,1.8514,1.8443,1.8487,1.8494,1.8519,1.8552,1.8555,1.8524,1.8521,1.8581,1.8587,1.8594,1.8676,1.8612,1.8616,1.8618,1.8796,1.8798,1.8801,0,0,0,0,0,0,1.8397,1.8409,1.8508,1.8462,1.8474,1.8491,1.8519,1.8521,1.8538,1.8558,1.8561,1.8538,1.8579,1.8588,1.8645,1.8678,1.8618,1.8621,1.8793,1.8797,1.88,1.8839,0,0,0,0,0,0,1.8394,1.8408,1.8434,1.8463,1.8477,1.8557,1.8521,1.8523,1.8546,1.8543,1.8572,1.8575,1.8579,1.8638,1.8649,1.8683,1.8625,1.879,1.8795,1.8799,1.8834,1.8843,1.885,0,0,0,0,0,1.8389,1.8441,1.8435,1.8447,1.8509,1.8559,1.8567,1.857,1.8548,1.8574,1.8587,1.8575,1.8672,1.8644,1.8656,1.8691,1.8788,1.8793,1.8798,1.8831,1.8841,1.885,0,0,0,0,0,0,1.8414,1.8445,1.8438,1.8502,1.8528,1.8555,1.8588,1.8581,1.8613,1.8608,1.861,1.8617,1.8676,1.8689,1.8657,1.8759,1.8727,1.8735,1.8748,1.8758,1.8766,1.8761,1.8628,0,0,0,0,0,1.8427,1.8465,1.849,1.8544,1.8557,1.8571,1.8592,1.8593,1.862,1.863,1.8648,1.8674,1.8711,1.8735,1.877,1.8836,1.8843,1.8867,1.8874,1.8881,1.8888,1.8926,1.8937,1.8818,1.8818,1.8818,0,0,1.8454,1.8476,1.8499,1.8549,1.857,1.861,1.858,1.8623,1.8653,1.8637,1.8692,1.8705,1.8735,1.8797,1.8825,1.881,1.8922,1.8887,1.8892,1.8896,1.8933,1.8944,1.8954,1.8821,1.8821,1.882,0,0,1.8524,1.8544,1.8592,1.8613,1.8645,1.8654,1.8666,1.8695,1.8704,1.8759,1.8749,1.8784,1.8847,1.8869,1.8889,1.897,1.896,1.8981,1.9022,1.906,1.9069,1.9078,1.9108,1.9119,1.8988,1.8988,1.8988,0,1.8553,1.8614,1.8617,1.8662,1.8685,1.8674,1.8723,1.8743,1.8785,1.8801,1.8783,1.8864,1.8883,1.8951,1.8971,1.8987,1.9001,1.8978,1.9068,1.9076,1.9084,1.9113,1.9125,1.899,1.899,1.899,1.8989,0,1.8649,1.8691,1.8726,1.8768,1.8795,1.8842,1.8852,1.8879,1.8878,1.8888,1.8946,1.8968,1.9009,1.9025,1.9023,1.9094,1.9084,1.9067,1.9035,1.9098,1.9126,1.9137,1.8994,1.8993,1.8992,1.8992,0,0,1.8736,1.8781,1.8794,1.8814,1.8849,1.8882,1.8929,1.8969,1.8993,1.9022,1.9062,1.9117,1.9103,1.9125,1.9125,1.9158,1.9224,1.9138,1.9138,1.9154,1.9305,1.9318,1.9331,1.9217,1.9219,1.9221,1.9303,0,1.881,1.8893,1.8899,1.8974,1.9014,1.9005,1.9046,1.9072,1.9084,1.9119,1.9132,1.9172,1.9149,1.9162,1.9194,1.9209,1.9254,1.9203,1.9255,1.9256,1.9249,1.9345,1.9359,1.9435,1.9314,1.9315,1.9317,0,1.8907,1.8942,1.9022,1.9054,1.9071,1.9108,1.9147,1.918,1.9211,1.9217,1.9243,1.924,1.9289,1.9255,1.9323,1.9288,1.9309,1.932,1.9323,1.9329,1.9291,1.9355,1.946,1.9472,1.9333,1.9332,1.9331,0,1.8965,1.9031,1.9088,1.9105,1.9143,1.917,1.9187,1.9215,1.924,1.9274,1.9291,1.9329,1.935,1.938,1.9388,1.9363,1.9456,1.9423,1.9463,1.9464,1.9484,1.9483,1.9595,1.9496,1.9496,1.9496,1.9495,0,1.9048,1.9097,1.9114,1.9149,1.9205,1.9211,1.9266,1.9281,1.9307,1.9345,1.9339,1.9375,1.9383,1.942,1.9426,1.9482,1.9491,1.9498,1.95,1.95,1.9499,1.9514,1.951,1.9499,1.9498,1.9497,1.9497,0,1.9121,1.9134,1.9196,1.9229,1.9238,1.9278,1.9305,1.9339,1.9351,1.94,1.9411,1.9429,1.9474,1.9484,1.9536,1.954,1.9607,1.9603,1.9598,1.9598,1.9638,1.9635,1.9765,1.9783,1.9671,1.9672,1.9673,0,1.9174,1.9212,1.9249,1.9275,1.9294,1.9335,1.9361,1.9369,1.9397,1.9435,1.9465,1.9509,1.9544,1.9615,1.9633,1.9673,1.967,1.9713,1.9676,1.9676,1.9673,1.9671,1.9676,1.9721,1.9722,1.9723,1.9723,0,1.9266,1.9272,1.931,1.9352,1.9384,1.9416,1.9447,1.9469,1.9481,1.9512,1.9558,1.9586,1.964,1.9684,1.9725,1.9742,1.9736,1.9735,1.9747,1.9748,1.9744,1.9748,1.9618,1.9732,1.9731,1.9731,1.973,1.973,1.9332,1.9367,1.9399,1.9443,1.9467,1.9497,1.9532,1.9549,1.9587,1.9633,1.9635,1.9686,1.9717,1.9771,1.9791,1.9831,1.9818,1.9834,1.9839,1.9843,1.9848,1.9737,1.9838,1.9838,1.9838,1.9837,1.9837,0,1.9426,1.9447,1.9487,1.9532,1.9566,1.9558,1.9593,1.9622,1.9667,1.9697,1.9733,1.9787,1.983,1.9852,1.9895,1.9922,1.992,1.9933,1.9932,1.9936,1.9856,1.9842,1.9934,1.9934,1.9934,1.9934,1.9934,1.9934,1.9478,1.9537,1.9547,1.9618,1.9639,1.9689,1.971,1.9738,1.9762,1.9823,1.986,1.9874,1.9901,1.9946,1.9986,1.9991,2.0008,2.0023,2.0027,1.9952,1.9942,1.9932,1.9919,2.0026,2.0026,2.0104,2.0105,2.0105]},{"header":{"parameterUnit":"m.s-1","parameterCategory":1,"la1":30.2991,"la2":30.254,"lo1":-89.0895,"lo2":-89.0444,"dy":0.0017,"dx":0.0017,"nx":28,"ny":28,"refTime":"2026-02-02T09:00:00:Z","depth":0,"parameterNumber":3,"parameterNumberName":"V-component_of_WINDS"},"data":[0,0,0,0,0,0,0,0,0,0,0,0,0,0,0,0,0,0,0,0,0,0,0,0,0,0,0,0,0,0,0,0,0,0,0,0,0,0,0,0,0,0,0,0,0,0,0,0,0,0,0,0,0,0,0,0,0,0,-1.4068,-1.4069,0,-1.4173,-1.4174,-1.4175,-1.417,-1.4169,-1.4167,-1.4166,-1.4274,-1.4278,-1.4283,0,0,0,0,0,0,0,0,0,0,0,0,0,-1.3865,-1.3868,-1.4068,-1.4069,-1.407,-1.4173,-1.4174,-1.4176,-1.4171,-1.4169,-1.4167,-1.4165,-1.4273,-1.4278,-1.4283,0,0,0,0,0,0,0,0,0,0,0,0,0,-1.396,-1.387,-1.4068,-1.408,-1.4082,-1.4173,-1.4174,-1.4176,-1.4171,-1.4169,-1.4167,-1.4164,-1.4271,-1.4277,-1.4284,-1.4368,0,0,-1.4303,-1.4306,0,0,0,0,0,0,0,0,-1.3954,-1.3967,-1.4077,-1.4079,-1.4082,-1.4156,-1.4142,-1.4241,-1.4172,-1.4137,-1.4166,-1.4163,-1.4237,-1.4246,-1.4271,-1.4373,-1.4378,-1.4304,-1.4308,-1.431,-1.4312,0,0,0,0,0,0,0,-1.3948,-1.3963,-1.4109,-1.4079,-1.4082,-1.4081,-1.4092,-1.4161,-1.4198,-1.414,-1.414,-1.4153,-1.4238,-1.4264,-1.4273,-1.438,-1.4304,-1.4309,-1.4313,-1.4316,-1.456,-1.4563,0,0,0,0,0,0,-1.3938,-1.3957,-1.4106,-1.4113,-1.4011,-1.4087,-1.4099,-1.4135,-1.4198,-1.4205,-1.4154,-1.4152,-1.4255,-1.4266,-1.4277,-1.4382,-1.431,-1.4316,-1.432,-1.4558,-1.4561,-1.4564,0,0,0,0,0,0,-1.3934,-1.3952,-1.4102,-1.4035,-1.4054,-1.4093,-1.4133,-1.4138,-1.4165,-1.4208,-1.4215,-1.4175,-1.4253,-1.4268,-1.4346,-1.4386,-1.4319,-1.4325,-1.4554,-1.4559,-1.4562,-1.4592,0,0,0,0,0,0,-1.3928,-1.395,-1.3982,-1.4036,-1.4058,-1.4169,-1.4135,-1.4142,-1.4176,-1.4173,-1.4229,-1.4236,-1.4253,-1.4337,-1.4353,-1.4393,-1.433,-1.4551,-1.4556,-1.4561,-1.4588,-1.4596,-1.4604,0,0,0,0,0,-1.3921,-1.3985,-1.3983,-1.4001,-1.4098,-1.4171,-1.4184,-1.4201,-1.4179,-1.4212,-1.424,-1.4234,-1.4379,-1.4345,-1.4363,-1.4406,-1.4549,-1.4555,-1.4561,-1.4584,-1.4595,-1.4604,0,0,0,0,0,0,-1.3935,-1.3993,-1.3991,-1.4075,-1.4118,-1.417,-1.4212,-1.4211,-1.4262,-1.4258,-1.4277,-1.429,-1.4369,-1.4395,-1.4356,-1.4493,-1.4461,-1.4471,-1.4473,-1.4483,-1.4491,-1.4484,-1.4336,0,0,0,0,0,-1.3948,-1.4001,-1.4049,-1.4119,-1.4141,-1.4173,-1.4205,-1.4215,-1.426,-1.4279,-1.4313,-1.4358,-1.4414,-1.445,-1.4503,-1.4591,-1.4605,-1.463,-1.4638,-1.4645,-1.4653,-1.4704,-1.4717,-1.4583,-1.4583,-1.4583,0,0,-1.3975,-1.4013,-1.4046,-1.4123,-1.4157,-1.4214,-1.4188,-1.4248,-1.4291,-1.4288,-1.4364,-1.4391,-1.4443,-1.4527,-1.4566,-1.4551,-1.4693,-1.4652,-1.4657,-1.4662,-1.4712,-1.4724,-1.4736,-1.4587,-1.4586,-1.4586,0,0,-1.4053,-1.4087,-1.4149,-1.4185,-1.4238,-1.426,-1.4275,-1.4327,-1.4345,-1.4423,-1.4423,-1.4474,-1.4568,-1.4606,-1.4637,-1.4733,-1.473,-1.475,-1.4793,-1.4842,-1.4853,-1.4863,-1.4899,-1.4911,-1.4758,-1.4758,-1.4758,0,-1.408,-1.4164,-1.4182,-1.4243,-1.4278,-1.4279,-1.4343,-1.4377,-1.4445,-1.447,-1.4452,-1.4573,-1.4608,-1.4702,-1.4726,-1.475,-1.477,-1.4744,-1.485,-1.486,-1.4869,-1.4904,-1.4917,-1.476,-1.476,-1.476,-1.476,0,-1.4196,-1.4255,-1.4299,-1.4366,-1.4405,-1.4468,-1.4496,-1.4534,-1.4541,-1.4565,-1.4645,-1.4687,-1.475,-1.4773,-1.478,-1.4869,-1.4859,-1.4846,-1.4814,-1.4884,-1.4917,-1.493,-1.4763,-1.4763,-1.4762,-1.4761,0,0,-1.4285,-1.4362,-1.4378,-1.4409,-1.4469,-1.4515,-1.4579,-1.4641,-1.4674,-1.4722,-1.4777,-1.4858,-1.4847,-1.4883,-1.4894,-1.4938,-1.5014,-1.492,-1.4921,-1.4937,-1.5118,-1.5128,-1.5143,-1.5012,-1.5015,-1.5017,-1.5114,0,-1.4371,-1.4483,-1.4502,-1.4601,-1.4657,-1.466,-1.4715,-1.4759,-1.4783,-1.4835,-1.4862,-1.492,-1.49,-1.4922,-1.4965,-1.4995,-1.5051,-1.4988,-1.5065,-1.5068,-1.5053,-1.516,-1.5171,-1.526,-1.5127,-1.5129,-1.513,0,-1.4485,-1.4537,-1.4642,-1.4696,-1.4721,-1.477,-1.483,-1.4879,-1.4929,-1.4944,-1.4985,-1.4992,-1.506,-1.5026,-1.512,-1.5078,-1.5111,-1.513,-1.5134,-1.5143,-1.5104,-1.5173,-1.5289,-1.5303,-1.5151,-1.5149,-1.5148,0,-1.4542,-1.4637,-1.4713,-1.474,-1.4805,-1.484,-1.4869,-1.4917,-1.4954,-1.5007,-1.5031,-1.5091,-1.5124,-1.517,-1.5194,-1.5166,-1.5288,-1.5255,-1.5304,-1.5303,-1.5329,-1.5328,-1.5454,-1.5348,-1.5348,-1.5348,-1.5348,0,-1.4636,-1.4701,-1.474,-1.4787,-1.486,-1.4881,-1.4953,-1.4981,-1.5025,-1.5078,-1.5084,-1.5134,-1.5161,-1.5216,-1.5235,-1.5312,-1.5326,-1.5341,-1.5346,-1.5342,-1.534,-1.5364,-1.5359,-1.5351,-1.5351,-1.535,-1.5349,0,-1.4712,-1.474,-1.4824,-1.4879,-1.4895,-1.4946,-1.4995,-1.5041,-1.5066,-1.5133,-1.515,-1.5189,-1.5254,-1.5283,-1.5362,-1.5375,-1.5464,-1.5463,-1.5447,-1.5449,-1.5496,-1.5492,-1.5643,-1.5665,-1.5544,-1.5545,-1.5546,0,-1.4771,-1.4821,-1.4882,-1.4919,-1.4949,-1.5007,-1.5045,-1.5069,-1.5109,-1.5171,-1.5211,-1.5276,-1.5329,-1.5433,-1.5469,-1.5531,-1.5532,-1.5581,-1.5541,-1.5537,-1.5535,-1.5533,-1.5539,-1.5588,-1.559,-1.5591,-1.5591,0,-1.4873,-1.4885,-1.494,-1.5001,-1.5047,-1.5095,-1.5143,-1.5173,-1.5204,-1.5249,-1.5316,-1.5357,-1.544,-1.5505,-1.5569,-1.56,-1.5602,-1.5604,-1.5619,-1.5615,-1.5605,-1.5613,-1.5468,-1.56,-1.5599,-1.5599,-1.5598,-1.5598,-1.4943,-1.4989,-1.504,-1.5101,-1.514,-1.5186,-1.5233,-1.5264,-1.532,-1.5389,-1.54,-1.5472,-1.5523,-1.561,-1.5643,-1.5701,-1.5689,-1.571,-1.5715,-1.5721,-1.5725,-1.5595,-1.5712,-1.5712,-1.5712,-1.5712,-1.5712,0,-1.5047,-1.5081,-1.5137,-1.5205,-1.5254,-1.5251,-1.5305,-1.5346,-1.541,-1.5457,-1.551,-1.5589,-1.5653,-1.5695,-1.576,-1.5798,-1.5801,-1.5814,-1.5812,-1.582,-1.5731,-1.5712,-1.5811,-1.5811,-1.5811,-1.5811,-1.5811,-1.5811,-1.5107,-1.5185,-1.5203,-1.5301,-1.5335,-1.5405,-1.5436,-1.5479,-1.5518,-1.5605,-1.5658,-1.5685,-1.5731,-1.58,-1.586,-1.5871,-1.5895,-1.591,-1.5921,-1.5836,-1.5826,-1.5816,-1.5799,-1.5915,-1.5915,-1.6006,-1.6006,-1.6007]}]]